GSAT0219 (GALILEO 23)

Last updated on Thu Nov 21 2024 00:02:31 GMT+0000 (Coordinated Universal Time)

1 43566U 18060C 24325.23851626 -.00000095 00000+0 00000+0 0 9991 2 43566 57.2987 357.2698 0005154 276.4197 83.5716 1.70475972 39403
UTC large
Height (km)
Speed (km/s)
/
Latitude / Longitude
Inclination (degrees)
Orbital Period (minutes)
Azimuth
Elevation
Range (km)
Doppler Factor

Next 0 passes for location: London (51.5072 / 0.1276)

Sorry there are no passes over London.